Weather in Pokrovka

Russia / Altai Krai     52°45′54″N   80°22′58″E
temp.,
°C
wind,
m/s
gust,
m/s
humid.,
%
clouds,
%
prec.,
mm/h
press.,
hPa
HPBL,
m
20 september, mon
mon2001:00+8wsw51061100 0.3 1010603
04:00+5wsw7127189 0.2 1012515
07:00+3wsw6127324 0.2 1014603
10:00+6wsw9135596 0.0 10141484
13:00+8wsw101351100 0.0 10151719
16:00+9w9124599 0.1 10151877
19:00+7w71159100 0.1 10151401
22:00+5w5106481 0.1 1016593
21 september, tue
tue2101:00+3wsw5106872 0.1 1017365
04:00+1wsw488458 0.0 1018183
07:00+1wsw478999 0.1 1019402
10:00+4wsw567361 0.0 1020553
13:00+4w5887100 0.2 1020746
16:00+5wnw5787100 0.3 1021674
19:00+6w466796 0.6 1021961
22:00+5w256683 0.0 1021167
22 september, wed
wed2201:00+2wsw357399 0.1 102294
04:00+1wsw358177 0.0 102178
07:00+1wsw3785100 0.0 1021204
10:00+4w5771100 0.1 1022809
13:00+6w5754100 0.1 10211600
16:00+7w5752100 0.1 10211505
19:00+6wnw456099 0.3 10211020
22:00+3nw227156 0.0 102313
23 september, thu
thu2301:00+3sw226599 0.0 102351
04:00+4sw2462100 0.0 1023108
07:00+2w236822 0.0 102447
10:00+4nne2272100 0.0 1025394
13:00+6nw226595 0.1 1026974
16:00+7nnw2253100 0.1 10261143
19:00+7nne345891 0.2 1026211
22:00+3nne477314 0.0 1028143
24 september, fri
fri2401:00+3ne366699 0.0 1028226
04:00+2nne357059 0.0 1029158
07:000n337952 0.0 103048
10:00+4n455696 0.0 1032847
13:00+5nw454997 0.0 10321422
16:00+6wnw664796 0.0 10321549
19:00+5nw355163 0.0 1032209
22:00+5wnw235499 0.0 103391